Location: Wavehorne
(51.0500°N, 0.8333°E)
Time: 20:11:57
(UTC+00:00)

NOSS 2-2 (C) - Pass Details

Date: 29 October 2021
Orbit: 450 x 1756 km, 63.3° (Epoch: 26 November)

Event Time Altitude Azimuth Distance (km) Brightness Sun altitude
Exits shadow 03:49:10 11° 185° (S) 3,057 6.9 -27.8°
Drops below altitude 10° 03:49:20 10° 184° (S) 3,114 6.9 -27.8°
Sets 03:53:00 0° 174° (S) 4,327 7.8 -27.2°
